Time,TemperatureF,DewpointF,PressureIn,WindDirection,WindDirectionDegrees,WindSpeedMPH,WindSpeedGustMPH,Humidity,HourlyPrecipIn,Conditions,Clouds,dailyrainin,SolarRadiationWatts/m^2,SoftwareType,DateUTC
2013-02-05 00:01:00,48.0,40.0,-100.00,SSW,192,11.0,22.0,75,0.00,,,0.00,2.000000,,2013-02-05 08:01:00,
2013-02-05 00:32:00,48.0,41.0,-100.00,South,189,13.0,22.0,76,0.00,,,0.00,2.000000,,2013-02-05 08:32:00,
2013-02-05 00:42:00,48.0,41.0,-100.00,South,189,13.0,22.0,76,0.00,,,0.00,2.000000,,2013-02-05 08:42:00,
2013-02-05 00:52:00,48.0,41.0,-100.00,South,189,13.0,22.0,76,0.00,,,0.00,2.000000,,2013-02-05 08:52:00,
2013-02-05 01:02:00,48.0,41.0,-100.00,South,189,13.0,22.0,76,0.00,,,0.00,2.000000,,2013-02-05 09:02:00,
2013-02-05 01:32:00,46.0,39.0,-100.00,South,180,12.0,22.0,76,0.00,,,0.00,3.000000,,2013-02-05 09:32:00,
2013-02-05 01:42:00,46.0,39.0,-100.00,South,180,12.0,22.0,76,0.00,,,0.00,3.000000,,2013-02-05 09:42:00,
2013-02-05 01:52:00,46.0,39.0,-100.00,South,180,12.0,22.0,76,0.00,,,0.00,3.000000,,2013-02-05 09:52:00,
2013-02-05 02:01:00,46.0,39.0,-100.00,South,180,12.0,22.0,76,0.00,,,0.00,3.000000,,2013-02-05 10:01:00,
2013-02-05 02:32:00,46.0,39.0,-100.00,South,171,10.0,21.0,75,0.00,,,0.00,3.000000,,2013-02-05 10:32:00,
2013-02-05 02:42:00,46.0,39.0,-100.00,South,171,10.0,21.0,75,0.00,,,0.00,3.000000,,2013-02-05 10:42:00,
2013-02-05 02:52:00,46.0,39.0,-100.00,South,171,10.0,21.0,75,0.00,,,0.00,3.000000,,2013-02-05 10:52:00,
2013-02-05 03:01:00,46.0,39.0,-100.00,South,171,10.0,21.0,75,0.00,,,0.00,3.000000,,2013-02-05 11:01:00,
2013-02-05 03:32:00,47.0,40.0,-100.00,South,172,8.0,17.0,76,0.00,,,0.00,3.000000,,2013-02-05 11:32:00,
2013-02-05 03:42:00,47.0,40.0,-100.00,South,172,8.0,17.0,76,0.00,,,0.00,3.000000,,2013-02-05 11:42:00,
2013-02-05 03:52:00,47.0,40.0,-100.00,South,172,8.0,17.0,76,0.00,,,0.00,3.000000,,2013-02-05 11:52:00,
2013-02-05 04:01:00,47.0,40.0,-100.00,South,172,8.0,17.0,76,0.00,,,0.00,3.000000,,2013-02-05 12:01:00,
2013-02-05 04:32:00,44.0,41.0,-100.00,South,173,6.0,14.0,88,0.02,,,0.02,2.000000,,2013-02-05 12:32:00,
2013-02-05 04:42:00,44.0,41.0,-100.00,South,173,6.0,14.0,88,0.02,,,0.02,2.000000,,2013-02-05 12:42:00,
2013-02-05 04:52:00,44.0,41.0,-100.00,South,173,6.0,14.0,88,0.02,,,0.02,2.000000,,2013-02-05 12:52:00,
2013-02-05 05:01:00,44.0,41.0,-100.00,South,173,6.0,14.0,88,0.02,,,0.02,2.000000,,2013-02-05 13:01:00,
2013-02-05 05:32:00,44.0,42.0,-100.00,SSE,163,7.0,13.0,92,0.04,,,0.06,2.000000,,2013-02-05 13:32:00,
2013-02-05 05:42:00,44.0,42.0,-100.00,SSE,163,7.0,13.0,92,0.04,,,0.06,2.000000,,2013-02-05 13:42:00,
2013-02-05 05:52:00,44.0,42.0,-100.00,SSE,163,7.0,13.0,92,0.04,,,0.06,2.000000,,2013-02-05 13:52:00,
2013-02-05 06:01:00,44.0,42.0,-100.00,SSE,163,7.0,13.0,92,0.04,,,0.06,2.000000,,2013-02-05 14:01:00,
2013-02-05 06:32:00,44.0,42.0,-100.00,South,176,6.0,11.0,93,0.03,,,0.09,2.000000,,2013-02-05 14:32:00,
2013-02-05 06:42:00,44.0,42.0,-100.00,South,176,6.0,11.0,93,0.03,,,0.09,2.000000,,2013-02-05 14:42:00,
2013-02-05 06:52:00,44.0,42.0,-100.00,South,176,6.0,11.0,93,0.03,,,0.09,2.000000,,2013-02-05 14:52:00,
2013-02-05 07:01:00,44.0,42.0,-100.00,South,176,6.0,11.0,93,0.03,,,0.09,2.000000,,2013-02-05 15:01:00,
2013-02-05 07:32:00,44.0,42.0,-100.00,SSE,168,5.0,9.0,93,0.01,,,0.10,2.000000,,2013-02-05 15:32:00,
2013-02-05 07:42:00,44.0,42.0,-100.00,SSE,168,5.0,9.0,93,0.01,,,0.10,2.000000,,2013-02-05 15:42:00,
2013-02-05 07:52:00,44.0,42.0,-100.00,SSE,168,5.0,9.0,93,0.01,,,0.10,2.000000,,2013-02-05 15:52:00,
2013-02-05 08:01:00,44.0,42.0,-100.00,SSE,168,5.0,9.0,93,0.01,,,0.10,2.000000,,2013-02-05 16:01:00,
2013-02-05 08:32:00,47.0,45.0,-100.00,South,187,12.0,19.0,93,0.00,,,-99.99,4.000000,,2013-02-05 16:32:00,
2013-02-05 08:42:00,47.0,45.0,-100.00,South,187,12.0,19.0,93,0.00,,,-99.99,4.000000,,2013-02-05 16:42:00,
2013-02-05 08:52:00,47.0,45.0,-100.00,South,187,12.0,19.0,93,0.00,,,-99.99,4.000000,,2013-02-05 16:52:00,
2013-02-05 09:01:00,47.0,45.0,-100.00,South,187,12.0,19.0,93,0.00,,,-99.99,4.000000,,2013-02-05 17:01:00,
2013-02-05 09:32:00,47.0,45.0,-100.00,South,184,12.0,23.0,91,0.00,,,-99.99,40.000000,,2013-02-05 17:32:00,
2013-02-05 09:42:00,47.0,45.0,-100.00,South,184,12.0,23.0,91,0.00,,,-99.99,40.000000,,2013-02-05 17:42:00,
2013-02-05 09:52:00,47.0,45.0,-100.00,South,184,12.0,23.0,91,0.00,,,-99.99,40.000000,,2013-02-05 17:52:00,
2013-02-05 10:01:00,47.0,45.0,-100.00,South,184,12.0,23.0,91,0.00,,,-99.99,40.000000,,2013-02-05 18:01:00,
2013-02-05 10:32:00,49.0,46.0,-100.00,South,183,14.0,24.0,88,0.00,,,-99.99,103.000000,,2013-02-05 18:32:00,
2013-02-05 10:42:00,49.0,46.0,-100.00,South,183,14.0,24.0,88,0.00,,,-99.99,103.000000,,2013-02-05 18:42:00,
2013-02-05 10:52:00,49.0,46.0,-100.00,South,183,14.0,24.0,88,0.00,,,-99.99,103.000000,,2013-02-05 18:52:00,
2013-02-05 11:01:00,49.0,46.0,-100.00,South,183,14.0,24.0,88,0.00,,,-99.99,103.000000,,2013-02-05 19:01:00,
2013-02-05 11:32:00,49.0,45.0,-100.00,South,186,13.0,24.0,86,0.02,,,-99.99,113.000000,,2013-02-05 19:32:00,
2013-02-05 11:42:00,49.0,45.0,-100.00,South,186,13.0,24.0,86,0.02,,,-99.99,113.000000,,2013-02-05 19:42:00,
2013-02-05 11:52:00,49.0,45.0,-100.00,South,186,13.0,24.0,86,0.02,,,-99.99,113.000000,,2013-02-05 19:52:00,
2013-02-05 12:01:00,49.0,45.0,-100.00,South,186,13.0,24.0,86,0.02,,,-99.99,113.000000,,2013-02-05 20:01:00,
2013-02-05 12:32:00,52.0,49.0,-100.00,SSW,193,11.0,25.0,89,0.15,,,-99.99,237.000000,,2013-02-05 20:32:00,
2013-02-05 12:42:00,52.0,49.0,-100.00,SSW,193,11.0,25.0,89,0.15,,,-99.99,237.000000,,2013-02-05 20:42:00,
2013-02-05 12:52:00,52.0,49.0,-100.00,SSW,193,11.0,25.0,89,0.15,,,-99.99,237.000000,,2013-02-05 20:52:00,
2013-02-05 13:01:00,52.0,49.0,-100.00,SSW,193,11.0,25.0,89,0.15,,,-99.99,237.000000,,2013-02-05 21:01:00,
2013-02-05 13:32:00,52.0,48.0,-100.00,SSW,197,8.0,18.0,85,0.00,,,0.27,339.000000,,2013-02-05 21:32:00,
2013-02-05 13:42:00,52.0,48.0,-100.00,SSW,197,8.0,18.0,85,0.00,,,0.27,339.000000,,2013-02-05 21:42:00,
2013-02-05 13:52:00,52.0,48.0,-100.00,SSW,197,8.0,18.0,85,0.00,,,0.27,339.000000,,2013-02-05 21:52:00,
2013-02-05 14:01:00,52.0,48.0,-100.00,SSW,197,8.0,18.0,85,0.00,,,0.27,339.000000,,2013-02-05 22:01:00,
2013-02-05 14:32:00,52.0,46.0,-100.00,SSW,196,9.0,20.0,80,0.00,,,0.27,335.000000,,2013-02-05 22:32:00,
2013-02-05 14:42:00,52.0,46.0,-100.00,SSW,196,9.0,20.0,80,0.00,,,0.27,335.000000,,2013-02-05 22:42:00,
2013-02-05 14:52:00,52.0,46.0,-100.00,SSW,196,9.0,20.0,80,0.00,,,0.27,335.000000,,2013-02-05 22:52:00,
2013-02-05 15:01:00,52.0,46.0,-100.00,SSW,196,9.0,20.0,80,0.00,,,0.27,335.000000,,2013-02-05 23:01:00,
2013-02-05 15:32:00,50.0,45.0,-100.00,South,190,12.0,19.0,83,0.00,,,0.27,208.000000,,2013-02-05 23:32:00,
2013-02-05 15:42:00,50.0,45.0,-100.00,South,190,12.0,19.0,83,0.00,,,0.27,208.000000,,2013-02-05 23:42:00,
2013-02-05 15:52:00,50.0,45.0,-100.00,South,190,12.0,19.0,83,0.00,,,0.27,208.000000,,2013-02-05 23:52:00,
2013-02-05 16:01:00,50.0,45.0,-100.00,South,190,12.0,19.0,83,0.00,,,0.27,208.000000,,2013-02-06 00:01:00,
2013-02-05 16:32:00,46.0,42.0,-100.00,SSW,192,6.0,24.0,87,0.03,,,0.30,89.000000,,2013-02-06 00:32:00,
2013-02-05 16:42:00,46.0,42.0,-100.00,SSW,192,6.0,24.0,87,0.03,,,0.30,89.000000,,2013-02-06 00:42:00,
2013-02-05 16:52:00,46.0,42.0,-100.00,SSW,192,6.0,24.0,87,0.03,,,0.30,89.000000,,2013-02-06 00:52:00,
2013-02-05 17:01:00,46.0,42.0,-100.00,SSW,192,6.0,24.0,87,0.03,,,0.30,89.000000,,2013-02-06 01:01:00,
2013-02-05 17:32:00,47.0,44.0,-100.00,SSW,209,5.0,12.0,90,0.01,,,0.31,46.000000,,2013-02-06 01:32:00,
2013-02-05 17:42:00,47.0,44.0,-100.00,SSW,209,5.0,12.0,90,0.01,,,0.31,46.000000,,2013-02-06 01:42:00,
2013-02-05 17:52:00,47.0,44.0,-100.00,SSW,209,5.0,12.0,90,0.01,,,0.31,46.000000,,2013-02-06 01:52:00,
2013-02-05 18:01:00,47.0,44.0,-100.00,SSW,209,5.0,12.0,90,0.01,,,0.31,46.000000,,2013-02-06 02:01:00,
2013-02-05 18:32:00,45.0,40.0,-100.00,SSW,193,7.0,22.0,81,0.01,,,0.32,18.000000,,2013-02-06 02:32:00,
2013-02-05 18:42:00,45.0,40.0,-100.00,SSW,193,7.0,22.0,81,0.01,,,0.32,18.000000,,2013-02-06 02:42:00,
2013-02-05 18:52:00,45.0,40.0,-100.00,SSW,193,7.0,22.0,81,0.01,,,0.32,18.000000,,2013-02-06 02:52:00,
2013-02-05 19:02:00,45.0,40.0,-100.00,SSW,193,7.0,22.0,81,0.01,,,0.32,18.000000,,2013-02-06 03:02:00,
2013-02-05 19:32:00,47.0,42.0,-100.00,SSW,198,7.0,15.0,83,0.00,,,0.32,2.000000,,2013-02-06 03:32:00,
2013-02-05 19:42:00,47.0,42.0,-100.00,SSW,198,7.0,15.0,83,0.00,,,0.32,2.000000,,2013-02-06 03:42:00,
2013-02-05 19:52:00,47.0,42.0,-100.00,SSW,198,7.0,15.0,83,0.00,,,0.32,2.000000,,2013-02-06 03:52:00,
2013-02-05 20:01:00,47.0,42.0,-100.00,SSW,198,7.0,15.0,83,0.00,,,0.32,2.000000,,2013-02-06 04:01:00,
2013-02-05 20:32:00,45.0,41.0,-100.00,SSW,212,6.0,16.0,86,0.09,,,0.41,2.000000,,2013-02-06 04:32:00,
2013-02-05 20:42:00,45.0,41.0,-100.00,SSW,212,6.0,16.0,86,0.09,,,0.41,2.000000,,2013-02-06 04:42:00,
2013-02-05 20:52:00,45.0,41.0,-100.00,SSW,212,6.0,16.0,86,0.09,,,0.41,2.000000,,2013-02-06 04:52:00,
2013-02-05 21:01:00,45.0,41.0,-100.00,SSW,212,6.0,16.0,86,0.09,,,0.41,2.000000,,2013-02-06 05:01:00,
2013-02-05 21:32:00,46.0,42.0,-100.00,South,191,6.0,28.0,86,0.02,,,0.43,2.000000,,2013-02-06 05:32:00,
2013-02-05 21:42:00,46.0,42.0,-100.00,South,191,6.0,28.0,86,0.02,,,0.43,2.000000,,2013-02-06 05:42:00,
2013-02-05 21:53:00,46.0,42.0,-100.00,South,191,6.0,28.0,86,0.02,,,0.43,2.000000,,2013-02-06 05:53:00,
2013-02-05 22:01:00,46.0,42.0,-100.00,South,191,6.0,28.0,86,0.02,,,0.43,2.000000,,2013-02-06 06:01:00,
2013-02-05 22:32:00,45.0,42.0,-100.00,SSE,159,5.0,12.0,89,0.00,,,0.43,1.000000,,2013-02-06 06:32:00,
2013-02-05 22:42:00,45.0,42.0,-100.00,SSE,159,5.0,12.0,89,0.00,,,0.43,1.000000,,2013-02-06 06:42:00,
2013-02-05 22:52:00,45.0,42.0,-100.00,SSE,159,5.0,12.0,89,0.00,,,0.43,1.000000,,2013-02-06 06:52:00,
2013-02-05 23:01:00,45.0,42.0,-100.00,SSE,159,5.0,12.0,89,0.00,,,0.43,1.000000,,2013-02-06 07:01:00,
2013-02-05 23:32:00,44.0,42.0,-100.00,SSE,167,7.0,10.0,92,0.00,,,0.43,2.000000,,2013-02-06 07:32:00,
2013-02-05 23:42:00,44.0,42.0,-100.00,SSE,167,7.0,10.0,92,0.00,,,0.43,2.000000,,2013-02-06 07:42:00,
2013-02-05 23:52:00,44.0,42.0,-100.00,SSE,167,7.0,10.0,92,0.00,,,0.43,2.000000,,2013-02-06 07:52:00,